DELTA 1 DEB, 7022

Orbit data source: Space-Track

DELTA 1 DEB, 7022 is space debris in SSO originally from a launch on Tue, 06 Nov 1973 UTC launched from the Air Force Western Test Range (AFWTR). Debris objects in space refer to the collection of defunct objects orbiting the Earth. Examples of debris include non-operational satellites, rocket bodies, and fragments generated from explosions, collisions, or faulty payload assembly.

Loading next visibility...
Identifier
7022, 1973-086N
Orbit
SSO
Country
Flag of USUS
Related business
Manufacturer
Unknown
Mission
Spacecraft
Bus & Motor
Unknown
Mass
Unknown
Launch date (UTC)
1973-11-06 (53 years ago)
Launch vehicle
Unknown
Launch site
Air Force Western Test Range (AFWTR)
Object type
Payload
Rocket body
Debris
Shape & HBR
Unknown shape, 0.2 m
Radar Cross Section
Medium (>0.1 m² and <1 m²)

Expand to show TLE details & history
Last TLE update: 22 hours ago

TLE from 22 hours ago
0 DELTA 1 DEB
1 07022U 73086N   26206.45163131 -.00000065  00000-0 -11796-3 0  9995
2 07022 102.3245 287.9475 0186526 171.0140 202.9128 12.44406485393438
Epoch: 2026-07-25T10:50Z
TLE epoch observation values (Epoch: 2026-07-25T10:50:20.945Z)
Latitude
12.77237°
Longitude
179.37129°
Altitude
1,625.352 km
Speed
6.998 km/s
True Right ascension
19h 00m 29s
True Declination
12° 42' 23"
Sunlit
Object was in full shadow at epoch
Visualization orbit readout
Latitude
Unknown
Longitude
Unknown
Altitude
Unknown
Speed
Unknown
Apparent Right ascension
Unknown
Apparent Declination
Unknown
Sunlit
N/A
Visualization observer readout
Local Sidereal Time
22:22:10
Azimuth
Unknown
Elevation
Unknown
Doppler factor
Unknown
Orbital elements
Apogee altitude
1,632.245 km
Perigee altitude
1,338.888 km
Semi-major axis
7,863.703 km
Eccentricity
0.01865
Inclination
102.3245°
RAAN
287.9475°
Arg. of periapsis
171.014°
True anomaly
202.09817°
Mean anomaly
202.9128°
Eccentric anomaly
202.50376°
Mean motion
3.11245 °/min
Orbital period
115.66 mins
BSTAR
-0.00011796
Loading maneuver chart data...
Computing Atmospheric mass density...
Loading historical data...
Loading historical data...
Loading historical data...
Loading historical data...
Loading historical data...
Loading historical data...
Loading historical data...

Documentation

Showing up to 5 results
|